Location: Newark
(47.4333°N, 19.2500°E)
Time: 03:01:32
(UTC+00:00)

X-37B - Pass Details

Date: 13 March 2021
Orbit: 380 x 394 km, 45.0° (Epoch: 07 April)

Event Time Altitude Azimuth Distance (km) Brightness Sun altitude
Rises 18:56:33 0° 249° (WSW) 2,267 5.2 -22.5°
Reaches altitude 10° 18:58:40 10° 243° (WSW) 1,416 3.9 -22.8°
Enters shadow 19:00:00 22° 232° (SW) 916 2.7 -23.0°
